Weather in Fira

Greece     36°24′58″N   25°26′14″E
temp.,
°C
wind,
m/s
gust,
m/s
humid.,
%
clouds,
%
prec.,
mm/h
press.,
hPa
HPBL,
m
28 november, sun
sun2823:00+20s9137926 0.0 1010473
02:00+20sw1116715 0.1 1010568
05:00+19wsw12158094 0.1 1010736
08:00+18wsw9137811 0.1 1012915
11:00+19sw8128097 0.0 1013678
14:00+19sw6107999 0.0 1012348
17:00+19sse81185100 0.0 1012307
20:00+19sse81283100 0.0 1011230
29 november, mon
mon2923:00+21s10156661 0.0 1010278
02:00+22s162463100 0.0 1007355
05:00+22ssw132167100 0.0 1007318
08:00+21sw101675100 0.0 1008333
11:00+19wsw91482100 0.0 1010562
14:00+19wsw121977100 0.0 1009636
17:00+19wsw121877100 0.0 1010947
20:00+18w131676100 0.0 10121097
30 november, tue
tue3023:00+18wsw1216720 0.0 10121474
02:00+18wsw1317670 0.0 10121706
05:00+17wsw15197245 0.2 10111726
08:00+16wsw16197677 1.6 10121527
11:00+16w172172100 0.8 10131732
14:00+17w1619635 1.4 10122060
17:00+17w1618630 0.0 10131725
20:00+16w1515575 0.0 10151934
1 december, wed
wed123:00+16wnw1112535 0.0 10151932
02:00+16wnw13125472 0.0 10162011
05:00+14nw10106054 0.4 10171491
08:00+14n666016 1.0 10191234
11:00+14nw45595 0.0 10201310
14:00+14nw55581 0.0 10191354
17:00+14nw55560 0.0 10191049
20:00+15w34550 0.0 10191001
2 december, thu
thu223:00+15sw33510 0.0 1019865
02:00+16ssw44630 0.0 1018947
05:00+16wsw67651 0.0 10181048
08:00+16wsw1011661 0.0 10181240
11:00+17wsw1011640 0.0 10181404
14:00+17wsw1012630 0.0 10171496
17:00+18sw91059100 0.0 10171776
20:00+18sw996694 0.2 10171227